Location: Bougoura
(13.1861°N, 5.0773°W)
Time: 00:35:17
(UTC+00:00)

Cosmos 1513 Rocket - Pass Details

Date: 18 September 2020
Orbit: 939 x 1009 km, 82.9° (Epoch: 20 October)

Event Time Altitude Azimuth Distance (km) Brightness Sun altitude
Rises 19:23:33 0° 180° (S) 3,723 7.5 -16.5°
Reaches altitude 10° 19:26:05 10° 179° (S) 2,769 6.8 -17.1°
Maximum altitude 19:32:27 78° 93° (E) 1,014 4.4 -18.7°
Drops below altitude 10° 19:38:43 10° 7° (N) 2,730 6.8 -20.2°
Sets 19:41:12 0° 6° (N) 3,667 7.5 -20.8°
